Location: Unspecified
(0.0000°N, 0.0000°E)
Time: 20:16:14
(UTC+02:00)

Palapa 6 Rocket - Visible Passes

Search period start: 25 July 2014 00:00
Search period end: 04 August 2014 00:00
Orbit: 486 x 1236 km, 22.7° (Epoch: 24 July)

Date Brightness Start Highest point End Pass type
(mag) Time Alt. Az. Time Alt. Az. Time Alt. Az.
25 Jul 5.2 05:30:03 32° ESE 05:30:03 32° ESE 05:33:17 10° E visible
25 Jul 3.8 07:12:07 17° WSW 07:16:55 60° NNW 07:21:52 10° NE visible
25 Jul 5.9 21:48:06 10° SW 21:52:36 18° SSW 21:54:12 17° S visible
26 Jul 5.5 05:19:05 30° E 05:19:05 30° E 05:21:59 10° E visible
26 Jul 4.1 07:01:09 21° W 07:05:16 51° NNW 07:10:23 10° NE visible
26 Jul 6.0 21:37:11 10° SW 21:41:04 16° S 21:43:12 14° S visible
27 Jul 5.7 05:08:05 26° E 05:08:05 26° E 05:10:36 10° ENE visible
27 Jul 4.4 06:50:10 25° W 06:53:37 45° NNW 06:58:52 10° NE visible
27 Jul 6.1 21:26:25 10° SW 21:29:33 14° S 21:32:11 11° SSE visible
28 Jul 6.0 04:57:04 23° ENE 04:57:04 23° ENE 04:59:10 10° ENE visible
28 Jul 4.7 06:39:09 28° WNW 06:41:56 40° NNW 06:47:19 10° NE visible
28 Jul 6.1 21:15:53 10° SSW 21:18:04 12° S 21:20:22 10° SSE visible
29 Jul 6.2 04:46:02 19° ENE 04:46:02 19° ENE 04:47:39 10° ENE visible
29 Jul 4.9 06:28:06 29° WNW 06:30:14 36° NNW 06:35:43 10° NE visible
30 Jul 6.5 04:34:58 16° ENE 04:34:58 16° ENE 04:36:05 10° ENE visible
30 Jul 5.1 06:17:02 29° NW 06:18:31 32° NNW 06:24:04 10° NE visible
31 Jul 6.7 04:23:52 13° ENE 04:23:52 13° ENE 04:24:27 10° ENE visible
31 Jul 5.3 06:05:55 28° NW 06:06:48 29° NNW 06:12:24 10° NE visible
01 Aug 6.9 04:12:44 10° ENE 04:12:44 10° ENE 04:12:46 10° ENE visible
01 Aug 5.5 05:54:48 27° NNW 05:55:05 27° NNW 06:00:41 10° NNE visible
01 Aug 6.3 07:44:33 10° NNW 07:45:04 10° NNW 07:45:36 10° NNW visible
02 Aug 5.7 05:43:38 25° NNW 05:43:38 25° NNW 05:48:56 10° NNE visible
03 Aug 5.9 05:32:28 22° NNW 05:32:28 22° NNW 05:37:08 10° NNE visible
